JSY weather

Syros Airport
Syros Island, Cyclades, Greece

Public forecast

Using degrees Celsius for public forecast. Weather courtesy of forecast.io.

METAR (pilot weather report)

Retrieved 2018/12/15 05:50 UTC (19 minutes ago):

LGSO 150550Z 13013KT 9999 FEW020 16/12 Q1017

TAF (pilot weather forecast)

Forecast is more than 12 hours old.

Closest forecast is Mikonos Airport, 19.0 nm (35.1 km) E. Retrieved 2012/09/27 00:18 UTC (6 years ago):

TAF TAF LGMK 272300Z 2800/2909 36016KT 9999 FEW020